Weather History for Valladolid Airport, Spain

Change the Weather History Date:

Monday, April 15, 2013

  Actual Average Record
Temperature  
Mean Temperature 59 °F -  
Max Temperature 68 °F - - ()
Min Temperature 50 °F - - ()
Degree Days  
Heating Degree Days 6    
Growing Degree Days 9 (Base 50)    
Moisture  
Dew Point 49 °F    
Average Humidity 68    
Maximum Humidity 94    
Minimum Humidity 49    
Precipitation  
Precipitation 0.00 in - - ()
Sea Level Pressure  
Sea Level Pressure 30.18 in    
Wind  
Wind Speed 6 mph ()    
Max Wind Speed 14 mph    
Max Gust Speed -    
Visibility 6.2 miles    
Events      
T = Trace of Precipitation, MM = Missing Value Source: Averaged Metar Reports

Daily Weather History Graph

Daily Weather History Graph

Search for Another Location

Airport:

Trip Planner

Search our weather history database for the weather conditions in past years. The results will help you decide how hot, cold, wet, or windy it might be!

Date:

Astronomy

Apr. 15, 2013 Rise Set
Actual Time 7:39 AM CEST 9:00 PM CEST
Civil Twilight 7:10 AM CEST 9:29 PM CEST
Nautical Twilight 6:35 AM CEST 10:03 PM CEST
Astronomical Twilight 5:59 AM CEST 10:40 PM CEST
Moon 10:51 AM CEST (4/15) 1:03 AM CEST (4/15)
Length of Visible Light 14h 18m
Length of Day
13h 20m
Waxing Crescent, 22% of the Moon is Illuminated
Apr 15
Waxing Crescent
Apr 18
First Quarter
Apr 25
Full
May 2
Last Quarter
May 10
New

Hourly Weather History & Observations

Time (CEST) Temp. Dew Point Humidity Pressure Visibility Wind Dir Wind Speed Gust Speed Precip Events Conditions
7:00 AM 50.0 °F 48.2 °F 94% 30.18 in 6.2 mi WSW 2.3 mph - N/A   Mostly Cloudy
7:30 AM 50.0 °F 48.2 °F 94% 30.18 in 6.2 mi SW 2.3 mph - N/A   Mostly Cloudy
8:00 AM 50.0 °F 48.2 °F 94% 30.18 in 6.2 mi SW 3.5 mph - N/A   Scattered Clouds
8:30 AM 51.8 °F 48.2 °F 88% 30.18 in 6.2 mi SW 2.3 mph - N/A   Scattered Clouds
9:00 AM 51.8 °F 48.2 °F 88% 30.18 in 6.2 mi Variable 2.3 mph - N/A   Scattered Clouds
9:30 AM 53.6 °F 48.2 °F 82% 30.21 in 6.2 mi Variable 2.3 mph - N/A   Scattered Clouds
10:00 AM 55.4 °F 50.0 °F 82% 30.21 in 6.2 mi Variable 2.3 mph - N/A   Partly Cloudy
10:30 AM 57.2 °F 50.0 °F 77% 30.21 in 6.2 mi WSW 4.6 mph - N/A   Partly Cloudy
11:00 AM 57.2 °F 50.0 °F 77% 30.21 in 6.2 mi West 8.1 mph - N/A   Partly Cloudy
11:30 AM 57.2 °F 50.0 °F 77% 30.21 in 6.2 mi SW 4.6 mph - N/A   Partly Cloudy
12:00 PM 59.0 °F 51.8 °F 77% 30.21 in 6.2 mi SSW 3.5 mph - N/A   Partly Cloudy
12:30 PM 60.8 °F 53.6 °F 77% 30.21 in 6.2 mi SW 6.9 mph - N/A   Partly Cloudy
1:00 PM 60.8 °F 53.6 °F 77% 30.21 in 6.2 mi SSW 9.2 mph - N/A   Partly Cloudy
1:30 PM 62.6 °F 51.8 °F 68% 30.21 in 6.2 mi SSW 10.4 mph - N/A   Scattered Clouds
2:00 PM 64.4 °F 51.8 °F 64% 30.18 in 6.2 mi SW 13.8 mph - N/A   Scattered Clouds
2:30 PM 64.4 °F 51.8 °F 64% 30.18 in 6.2 mi WSW 11.5 mph - N/A   Scattered Clouds
3:00 PM 66.2 °F 50.0 °F 56% 30.18 in 6.2 mi WSW 13.8 mph - N/A   Scattered Clouds
3:30 PM 64.4 °F 48.2 °F 56% 30.18 in 6.2 mi WSW 9.2 mph - N/A   Scattered Clouds
4:00 PM 68.0 °F 51.8 °F 56% 30.18 in 6.2 mi WSW 12.7 mph - N/A   Scattered Clouds
4:30 PM 66.2 °F 50.0 °F 56% 30.18 in 6.2 mi West 12.7 mph - N/A   Scattered Clouds
5:00 PM 66.2 °F 48.2 °F 52% 30.18 in 6.2 mi West 11.5 mph - N/A   Scattered Clouds
5:30 PM 66.2 °F 48.2 °F 52% 30.15 in 6.2 mi West 10.4 mph - N/A   Scattered Clouds
6:00 PM 66.2 °F 46.4 °F 49% 30.15 in 6.2 mi West 12.7 mph - N/A   Partly Cloudy
6:30 PM 66.2 °F 46.4 °F 49% 30.15 in 6.2 mi West 13.8 mph - N/A   Partly Cloudy
7:00 PM 66.2 °F 46.4 °F 49% 30.15 in 6.2 mi West 13.8 mph - N/A   Partly Cloudy
7:30 PM 64.4 °F 44.6 °F 49% 30.15 in - West 12.7 mph - N/A   Clear
8:00 PM 64.4 °F 44.6 °F 49% 30.15 in - West 10.4 mph - N/A   Clear
8:30 PM 62.6 °F 46.4 °F 55% 30.15 in - West 6.9 mph - N/A   Clear
9:00 PM 59.0 °F 46.4 °F 63% 30.18 in - West 5.8 mph - N/A   Clear
9:30 PM 57.2 °F 46.4 °F 67% 30.18 in - WNW 4.6 mph - N/A   Clear